| time (UTC) | temp F | wind direction | speed knots | gust knots | rain 1hr in | rain 24hr in | rain mn in | humidity % | barometer mb |
| 20260507123001 | 50 | 216 | 10.4 | 13.9 | 0.00 | 0.00 | 0.00 | 43 | 1015.5 |
| 20260507121501 | 51 | 207 | 8.7 | 10.4 | 0.00 | 0.00 | 0.00 | 43 | 1015.5 |
| 20260507120059 | 54 | 213 | 7.8 | 8.7 | 0.00 | 0.00 | 0.00 | 30 | 1015.4 |
| 20260507114600 | 52 | 196 | 5.2 | 7.8 | 0.00 | 0.00 | 0.00 | 32 | 1015.5 |
| 20260507113056 | 52 | 208 | 6.1 | 8.7 | 0.00 | 0.00 | 0.00 | 34 | 1015.5 |
| 20260507111556 | 53 | 203 | 5.2 | 8.7 | 0.00 | 0.00 | 0.00 | 35 | 1015.5 |
| 20260507104601 | 51 | 209 | 3.5 | 7.0 | 0.00 | 0.00 | 0.00 | 29 | 1015.4 |
| 20260507103125 | 51 | 207 | 4.3 | 7.0 | 0.00 | 0.00 | 0.00 | 34 | 1015.4 |
| 20260507101552 | 52 | 211 | 4.3 | 7.0 | 0.00 | 0.00 | 0.00 | 30 | 1015.2 |
| 20260507100103 | 52 | 206 | 2.6 | 4.3 | 0.00 | 0.00 | 0.00 | 27 | 1015.2 |
| 20260507094550 | 52 | 206 | 2.6 | 4.3 | 0.00 | 0.00 | 0.00 | 35 | 1015.1 |
| 20260507093048 | 55 | 303 | 0.0 | 2.6 | 0.00 | 0.00 | 0.00 | 24 | 1015.1 |
| 20260507091548 | 53 | 269 | 1.7 | 5.2 | 0.00 | 0.00 | 0.00 | 25 | 1015.0 |
| 20260507090054 | 53 | 229 | 1.7 | 3.5 | 0.00 | 0.00 | 0.00 | 25 | 1015.0 |
| 20260507084548 | 52 | 261 | 0.0 | 3.5 | 0.00 | 0.00 | 0.00 | 27 | 1015.0 |
| 20260507083045 | 52 | 41 | 1.7 | 2.6 | 0.00 | 0.00 | 0.00 | 29 | 1015.1 |
| 20260507081542 | 54 | 41 | 0.9 | 1.7 | 0.00 | 0.00 | 0.00 | 28 | 1015.0 |
| 20260507080046 | 53 | 41 | 0.9 | 4.3 | 0.00 | 0.00 | 0.00 | 27 | 1015.1 |
| 20260507074538 | 52 | 11 | 2.6 | 5.2 | 0.00 | 0.00 | 0.00 | 30 | 1015.1 |
| 20260507073039 | 50 | 318 | 3.5 | 5.2 | 0.00 | 0.00 | 0.00 | 35 | 1015.0 |
| 20260507071530 | 49 | 28 | 3.5 | 5.2 | 0.00 | 0.00 | 0.00 | 38 | 1015.0 |
| 20260507070027 | 47 | 9 | 2.6 | 5.2 | 0.00 | 0.00 | 0.00 | 42 | 1015.0 |
| 20260507064523 | 47 | 360 | 2.6 | 7.0 | 0.00 | 0.00 | 0.00 | 43 | 1015.0 |
| 20260507063020 | 45 | 31 | 4.3 | 7.8 | 0.00 | 0.00 | 0.00 | 43 | 1014.9 |
| 20260507061516 | 44 | 17 | 5.2 | 7.8 | 0.00 | 0.00 | 0.00 | 46 | 1014.8 |
| 20260507060019 | 43 | 26 | 6.1 | 7.8 | 0.00 | 0.00 | 0.00 | 47 | 1014.8 |
| 20260507054509 | 42 | 17 | 3.5 | 7.0 | 0.00 | 0.00 | 0.00 | 50 | 1014.7 |
| 20260507053007 | 41 | 13 | 5.2 | 8.7 | 0.00 | 0.00 | 0.00 | 50 | 1014.7 |
| 20260507051504 | 40 | 25 | 5.2 | 8.7 | 0.00 | 0.00 | 0.00 | 53 | 1014.6 |
| 20260507050007 | 40 | 360 | 4.3 | 7.8 | 0.00 | 0.00 | 0.00 | 54 | 1014.6 |
| 20260507044604 | 39 | 19 | 5.2 | 7.8 | 0.00 | 0.00 | 0.00 | 56 | 1014.6 |
| 20260507043058 | 39 | 26 | 4.3 | 7.8 | 0.00 | 0.00 | 0.00 | 57 | 1014.6 |
| 20260507041603 | 38 | 24 | 6.1 | 8.7 | 0.00 | 0.00 | 0.00 | 57 | 1014.6 |
| 20260507040055 | 38 | 25 | 5.2 | 8.7 | 0.00 | 0.00 | 0.00 | 58 | 1014.5 |
| 20260507034552 | 37 | 28 | 6.1 | 9.6 | 0.00 | 0.00 | 0.00 | 58 | 1014.4 |
| 20260507033052 | 37 | 57 | 6.1 | 9.6 | 0.00 | 0.00 | 0.00 | 58 | 1014.4 |
| 20260507031550 | 37 | 29 | 7.0 | 9.6 | 0.00 | 0.00 | 0.00 | 58 | 1014.3 |
| 20260507030050 | 36 | 32 | 6.1 | 8.7 | 0.00 | 0.00 | 0.00 | 57 | 1014.2 |
| 20260507024552 | 36 | 34 | 6.1 | 8.7 | 0.00 | 0.00 | 0.00 | 57 | 1014.2 |
| 20260507023048 | 37 | 321 | 5.2 | 7.8 | 0.00 | 0.00 | 0.00 | 58 | 1014.2 |
| 20260507021600 | 37 | 11 | 5.2 | 7.8 | 0.00 | 0.00 | 0.00 | 59 | 1014.3 |
| 20260507020105 | 37 | 34 | 6.1 | 9.6 | 0.00 | 0.00 | 0.00 | 58 | 1014.2 |
| 20260507014606 | 36 | 19 | 6.1 | 7.8 | 0.00 | 0.00 | 0.00 | 59 | 1014.2 |
| 20260507013047 | 36 | 33 | 3.5 | 7.0 | 0.00 | 0.00 | 0.00 | 58 | 1014.2 |
| 20260507011551 | 36 | 26 | 4.3 | 7.0 | 0.00 | 0.00 | 0.00 | 60 | 1014.1 |
| 20260507010044 | 36 | 19 | 4.3 | 7.8 | 0.00 | 0.00 | 0.00 | 60 | 1014.1 |
| 20260507004538 | 36 | 5 | 6.1 | 8.7 | 0.00 | 0.00 | 0.00 | 60 | 1014.0 |
| 20260507003036 | 36 | 17 | 4.3 | 7.8 | 0.00 | 0.00 | 0.00 | 62 | 1013.9 |
| 20260507001553 | 36 | 12 | 4.3 | 7.8 | 0.00 | 0.00 | 0.00 | 62 | 1013.7 |
| 20260507000038 | 36 | 360 | 5.2 | 7.8 | 0.00 | 0.00 | 0.00 | 63 | 1013.7 |
| 20260506234536 | 36 | 319 | 5.2 | 7.8 | 0.00 | 0.00 | 0.00 | 64 | 1013.6 |
| 20260506233030 | 35 | 13 | 4.3 | 8.7 | 0.00 | 0.00 | 0.00 | 64 | 1013.5 |
| 20260506231533 | 35 | 5 | 4.3 | 7.8 | 0.00 | 0.00 | 0.00 | 63 | 1013.5 |
| 20260506230030 | 35 | 360 | 5.2 | 7.8 | 0.00 | 0.00 | 0.00 | 62 | 1013.5 |
| 20260506224525 | 35 | 18 | 4.3 | 7.0 | 0.00 | 0.00 | 0.00 | 60 | 1013.6 |
| 20260506223023 | 35 | 9 | 4.3 | 7.0 | 0.00 | 0.00 | 0.00 | 59 | 1013.6 |
| 20260506221519 | 36 | 319 | 3.5 | 5.2 | 0.00 | 0.00 | 0.00 | 58 | 1013.6 |
| 20260506220016 | 37 | 9 | 3.5 | 5.2 | 0.00 | 0.00 | 0.00 | 59 | 1013.4 |
| 20260506214513 | 37 | 298 | 2.6 | 5.2 | 0.00 | 0.00 | 0.00 | 58 | 1013.4 |
| 20260506213010 | 37 | 313 | 3.5 | 7.0 | 0.00 | 0.00 | 0.00 | 53 | 1013.4 |
| 20260506211511 | 37 | 360 | 4.3 | 5.2 | 0.00 | 0.00 | 0.00 | 52 | 1013.3 |
| 20260506204509 | 38 | 319 | 4.3 | 7.0 | 0.00 | 0.00 | 0.00 | 52 | 1013.3 |
| 20260506203004 | 38 | 319 | 4.3 | 7.0 | 0.00 | 0.00 | 0.00 | 50 | 1013.1 |
| 20260506201507 | 39 | 318 | 3.5 | 5.2 | 0.00 | 0.00 | 0.00 | 42 | 1013.2 |
| 20260506200009 | 39 | 298 | 3.5 | 6.1 | 0.00 | 0.00 | 0.00 | 38 | 1013.2 |
| 20260506194502 | 40 | 298 | 2.6 | 3.5 | 0.00 | 0.00 | 0.00 | 34 | 1013.3 |
| 20260506193001 | 41 | 298 | 0.9 | 2.6 | 0.00 | 0.00 | 0.00 | 32 | 1013.4 |
| 20260506191501 | 42 | 298 | 0.9 | 2.6 | 0.00 | 0.00 | 0.00 | 31 | 1013.4 |
| 20260506190000 | 43 | 298 | 2.6 | 3.5 | 0.00 | 0.00 | 0.00 | 28 | 1013.4 |
| 20260506184604 | 44 | 298 | 1.7 | 3.5 | 0.00 | 0.00 | 0.00 | 29 | 1013.4 |
| 20260506183104 | 45 | 297 | 2.6 | 4.3 | 0.00 | 0.00 | 0.00 | 31 | 1013.3 |
| 20260506181606 | 47 | 268 | 2.6 | 5.2 | 0.00 | 0.00 | 0.00 | 31 | 1013.3 |
| 20260506180059 | 47 | 292 | 4.3 | 7.0 | 0.00 | 0.00 | 0.00 | 33 | 1013.3 |
| 20260506174557 | 46 | 302 | 1.7 | 3.5 | 0.00 | 0.00 | 0.00 | 46 | 1013.3 |
| 20260506173125 | 46 | 219 | 1.7 | 3.5 | 0.00 | 0.00 | 0.00 | 54 | 1013.3 |
| 20260506171559 | 46 | 219 | 2.6 | 4.3 | 0.00 | 0.00 | 0.00 | 53 | 1013.3 |
| 20260506170107 | 46 | 209 | 3.5 | 7.0 | 0.00 | 0.00 | 0.00 | 53 | 1013.4 |
| 20260506164554 | 46 | 189 | 3.5 | 7.0 | 0.00 | 0.00 | 0.00 | 51 | 1013.5 |
| 20260506163058 | 47 | 204 | 4.3 | 7.0 | 0.00 | 0.00 | 0.00 | 50 | 1013.5 |
| 20260506161553 | 47 | 184 | 3.5 | 7.8 | 0.00 | 0.00 | 0.00 | 48 | 1013.4 |
| 20260506160053 | 47 | 212 | 4.3 | 7.0 | 0.00 | 0.00 | 0.00 | 50 | 1013.3 |
| 20260506154608 | 47 | 223 | 6.1 | 9.6 | 0.00 | 0.00 | 0.00 | 50 | 1013.3 |
| 20260506153053 | 47 | 198 | 7.0 | 8.7 | 0.00 | 0.00 | 0.00 | 50 | 1013.5 |
| 20260506151550 | 48 | 192 | 4.3 | 8.7 | 0.00 | 0.00 | 0.00 | 49 | 1013.5 |
| 20260506150050 | 49 | 196 | 6.1 | 8.7 | 0.00 | 0.00 | 0.00 | 42 | 1013.5 |
| 20260506144554 | 48 | 202 | 6.1 | 10.4 | 0.00 | 0.00 | 0.00 | 44 | 1013.5 |
| 20260506143048 | 48 | 211 | 7.0 | 10.4 | 0.00 | 0.00 | 0.00 | 43 | 1013.5 |
| 20260506141547 | 48 | 202 | 7.8 | 9.6 | 0.00 | 0.00 | 0.00 | 39 | 1013.6 |
| 20260506140047 | 49 | 203 | 7.8 | 8.7 | 0.00 | 0.00 | 0.00 | 39 | 1013.6 |
| 20260506134545 | 48 | 200 | 7.0 | 9.6 | 0.00 | 0.00 | 0.00 | 41 | 1013.6 |
| 20260506133056 | 49 | 210 | 7.8 | 10.4 | 0.00 | 0.00 | 0.00 | 42 | 1013.6 |
| 20260506131543 | 50 | 210 | 7.8 | 9.6 | 0.00 | 0.00 | 0.00 | 38 | 1013.7 |
| 20260506130042 | 50 | 202 | 8.7 | 10.4 | 0.00 | 0.00 | 0.00 | 39 | 1013.6 |
| 20260506124540 | 51 | 203 | 7.0 | 8.7 | 0.00 | 0.00 | 0.00 | 41 | 1013.7 |